Vorticity
41 41 41 40 39 38 37 36 35 34 32 31 29 29 28 27 26 25 23 22 20 18 17 16 15 14 12 11 9 8 8 8 8 8 7 6 5 5 5 6 8 8 9 8 8 7 7 8 9 9 10 10 9 8 8 8 8 8 8 8 7 6 6 5 5 5 5 5 5
37 39 40 40 38 37 35 32 29 27 26 25 24 24 23 22 21 20 19 18 16 15 14 13 12 11 10 9 9 8 8 8 8 6 5 4 5 5 6 7 8 8 8 7 7 7 8 9 10 10 10 9 9 8 7 8 7 7 7 7 6 6 5 5 5 5 5 5 5
25 26 26 26 26 25 24 22 21 19 18 17 16 15 15 14 14 14 14 14 13 13 12 11 10 9 9 9 9 9 8 7 5 4 4 4 5 6 7 8 8 8 7 7 7 8 9 10 10 10 9 8 8 7 7 7 7 7 6 6 6 6 5 5 5 5 5 5 4
12 13 14 15 16 17 18 18 17 16 15 14 12 11 10 10 10 10 10 11 11 11 11 10 10 9 9 9 8 7 5 4 3 3 3 4 5 7 8 8 8 7 7 7 8 9 9 9 9 9 9 8 7 7 7 6 6 6 6 6 6 5 5 6 6 6 5 5 4
8 9 10 11 12 13 13 14 14 13 13 11 10 9 8 8 8 8 8 9 10 10 10 10 9 9 8 7 6 4 3 2 2 3 4 5 7 8 8 8 8 7 7 8 9 9 9 9 9 9 8 8 7 7 7 6 6 6 6 6 5 5 5 6 6 6 5 5 5
7 7 7 7 7 7 8 9 9 9 8 8 7 7 7 7 7 7 8 8 9 9 9 8 7 6 5 4 3 2 2 2 3 4 5 7 8 8 8 8 8 8 8 9 9 9 8 8 8 8 8 8 7 7 6 5 5 5 5 5 5 6 6 6 6 6 5 5 5
6 6 5 4 4 4 5 5 6 6 5 6 6 6 6 6 6 7 7 7 7 7 7 5 4 3 2 2 2 2 3 3 4 6 7 8 9 8 8 7 8 9 9 9 9 8 8 8 8 8 8 8 7 6 6 5 5 5 5 5 6 6 6 7 6 6 5 5 5
5 5 5 5 4 4 4 4 4 4 4 5 5 5 5 6 6 6 6 7 7 6 5 4 3 3 3 3 4 4 5 5 6 8 9 9 9 8 8 8 9 10 10 9 8 8 8 9 8 8 8 7 6 6 5 5 5 5 6 6 6 6 7 7 6 5 5 5 6
4 5 5 5 5 5 5 5 5 4 4 4 5 5 5 5 6 6 6 7 6 6 5 4 4 4 5 6 6 6 6 7 8 9 10 10 9 9 9 10 10 10 9 9 8 8 8 9 9 8 7 6 5 5 5 5 5 6 6 6 7 7 7 6 5 5 5 5 6
5 5 5 5 5 6 6 6 5 5 5 5 5 5 5 5 6 6 6 6 6 6 6 6 6 6 7 7 7 7 7 9 10 10 10 10 10 10 11 11 10 9 8 8 8 9 9 9 8 7 6 5 5 5 6 6 6 6 6 7 7 7 7 6 5 5 5 6 6
4 4 4 5 5 6 7 7 7 7 6 5 5 5 5 6 6 6 6 7 7 7 7 6 6 7 7 7 7 7 8 10 11 11 10 11 12 12 11 10 9 8 8 8 9 9 9 8 7 6 6 5 5 6 6 6 6 7 7 7 7 6 6 5 4 5 5 6 6
4 4 4 5 6 7 8 9 9 7 6 5 5 5 6 6 6 6 7 9 9 8 7 6 7 7 7 7 8 9 10 11 11 11 11 12 12 11 10 9 8 8 8 9 9 9 8 7 6 6 6 6 6 6 6 7 7 7 7 7 6 5 4 4 4 5 5 6 6
4 4 4 5 7 9 10 10 9 7 5 4 5 6 6 6 7 8 9 9 8 7 7 7 8 7 7 8 9 10 11 11 11 11 11 12 11 9 8 7 7 8 8 9 9 8 7 6 6 6 6 6 7 7 7 7 8 8 7 7 5 4 3 3 4 5 5 5 5
4 4 5 6 8 10 11 11 8 6 4 4 5 6 6 7 8 9 9 9 8 7 7 8 9 9 9 9 10 10 11 10 10 11 11 10 9 7 7 7 7 8 8 8 8 7 6 6 6 6 6 7 7 8 8 8 8 8 7 5 4 3 3 3 4 5 5 5 4
6 6 7 8 10 11 12 11 8 6 4 5 6 7 7 7 8 8 8 8 7 7 8 9 10 10 11 11 11 11 10 10 10 10 9 8 7 7 6 7 7 8 8 7 7 7 6 6 6 7 7 7 8 8 8 8 8 7 5 4 3 2 2 3 4 4 4 4 3
7 8 8 10 12 13 13 12 9 6 4 5 6 7 7 7 7 7 7 7 7 8 10 11 11 11 12 13 12 11 10 10 10 9 8 7 7 6 7 7 7 7 7 7 7 7 7 7 7 7 7 8 8 8 8 8 7 6 4 2 2 2 3 4 4 4 3 3 2
8 9 10 11 12 14 14 12 8 6 5 5 6 7 7 6 6 6 6 7 8 10 12 12 12 12 13 13 13 12 11 10 9 8 8 7 7 7 7 7 7 7 7 7 7 7 7 7 7 7 8 8 8 8 8 7 6 4 3 2 2 3 4 4 4 3 3 2 1
9 10 11 11 12 14 14 12 8 6 5 5 6 6 6 5 5 6 8 10 11 12 13 13 14 14 13 12 12 11 10 10 9 8 7 7 7 7 7 7 7 7 7 7 7 7 7 7 7 7 8 8 8 8 7 6 4 3 2 2 3 4 4 4 4 3 2 1 1
10 11 11 10 12 14 13 11 8 6 6 6 6 6 6 6 7 8 10 13 14 14 14 14 15 15 14 12 11 11 10 9 8 8 7 7 6 7 7 7 7 7 7 8 8 7 7 7 7 7 7 8 8 7 6 4 3 3 2 3 4 4 4 4 3 2 1 0 1
11 11 10 9 12 13 13 10 8 6 6 6 6 7 7 8 9 11 13 14 15 15 15 15 15 14 14 12 11 10 10 8 7 7 6 6 6 6 7 6 7 7 7 8 7 7 7 6 7 7 7 7 7 6 5 4 3 3 3 4 4 4 4 3 2 1 0 0 1
12 11 9 8 12 13 12 9 7 7 7 7 8 8 9 10 12 13 14 14 15 16 16 16 14 14 13 12 11 10 9 7 6 6 6 6 6 6 6 6 7 7 7 8 7 6 6 6 6 7 7 6 6 5 4 3 3 4 4 4 4 4 3 2 1 0 0 1 1
12 10 7 7 13 14 12 9 7 7 7 8 9 9 10 11 12 13 14 14 15 16 16 15 14 13 12 11 10 9 8 6 6 5 5 6 6 6 6 6 6 7 7 7 6 6 6 6 6 6 6 6 5 4 4 3 4 4 4 4 4 3 2 1 0 0 1 1 1
11 7 5 9 15 16 13 10 8 7 8 9 10 10 11 12 12 13 13 14 15 16 16 15 15 14 12 11 9 7 6 5 5 5 5 6 6 6 6 6 6 7 7 7 6 6 6 6 6 6 6 5 4 4 4 4 4 4 4 4 3 2 1 1 1 1 1 2 2
9 5 5 13 19 18 14 11 9 9 9 10 10 11 11 12 12 13 14 15 15 16 16 15 14 12 10 8 7 6 5 5 5 5 5 6 6 6 6 6 6 7 7 6 6 6 6 6 6 6 5 5 5 4 4 4 4 4 3 3 2 2 1 1 1 2 3 3 3
6 3 6 18 21 18 14 12 10 10 10 10 11 11 12 13 13 14 14 15 15 15 14 13 11 9 7 6 5 4 4 4 4 4 5 5 5 6 6 6 6 7 7 6 6 6 5 5 5 5 5 5 5 5 5 4 4 3 3 2 1 1 1 2 3 4 5 5 5
4 3 9 21 20 17 13 12 11 10 11 11 12 13 13 13 13 14 14 15 15 14 12 10 7 6 5 4 3 3 3 4 4 4 4 5 5 6 6 6 7 7 7 6 6 6 5 5 4 4 5 5 5 5 4 4 3 3 2 1 1 1 2 3 5 6 7 8 9
2 5 13 21 17 15 12 11 10 10 11 12 13 13 13 12 13 13 14 14 13 11 9 6 5 4 4 3 3 3 3 3 4 4 4 5 5 6 6 7 7 7 7 6 6 5 5 5 4 5 5 5 5 4 4 3 3 2 2 1 1 2 3 5 7 8 10 12 15
1 7 15 19 15 12 11 10 10 10 11 13 13 13 12 12 12 13 13 12 10 8 6 4 4 3 3 2 3 3 3 3 4 4 4 5 6 6 7 7 7 7 6 5 5 5 5 4 4 4 4 4 4 4 3 3 2 2 2 2 2 4 5 7 10 12 14 18 23
3 10 16 16 13 10 9 9 9 10 11 12 12 12 11 11 12 12 11 9 7 5 4 4 3 3 2 2 2 2 3 4 4 4 5 6 7 7 7 7 7 6 5 5 5 5 4 4 4 3 3 3 3 3 3 2 2 2 2 2 4 6 8 11 14 17 21 26 31
7 13 16 14 11 9 8 8 9 10 11 12 11 11 11 11 12 11 9 6 5 4 4 4 3 3 2 2 2 3 4 4 5 5 6 7 7 8 8 7 7 6 5 4 4 4 4 4 3 3 2 2 2 2 2 2 1 2 2 4 6 8 11 15 19 24 29 35 40
11 15 15 12 10 8 8 8 9 10 11 11 10 10 11 11 11 9 6 4 4 4 4 3 3 3 3 3 3 4 4 5 6 7 7 8 8 8 8 7 6 5 4 4 4 4 4 4 3 2 2 1 1 1 1 1 1 2 3 5 8 12 15 20 25 30 36 41 43
14 15 13 11 9 8 8 8 10 10 10 10 10 10 11 11 9 6 5 4 4 4 4 3 3 3 4 4 5 5 6 6 7 7 8 8 8 8 8 7 6 5 4 4 4 4 5 5 4 3 2 2 1 1 1 1 1 3 5 7 11 15 20 25 31 36 41 43 41
15 14 12 9 9 9 9 10 10 10 9 9 10 10 10 8 5 4 4 5 5 5 4 4 4 4 5 6 6 6 7 7 7 8 8 8 8 8 8 7 6 5 4 4 4 5 5 5 4 3 3 2 2 2 1 2 3 4 7 10 14 19 24 30 35 39 41 39 32
14 12 10 9 9 9 10 10 9 9 8 9 10 10 8 5 3 3 4 6 5 5 4 4 5 6 6 7 7 7 8 8 8 8 8 8 8 8 8 7 6 5 4 4 4 4 4 4 3 3 3 3 2 2 2 3 5 7 10 14 18 24 29 35 39 40 37 29 21
12 11 9 9 9 9 9 9 8 8 9 9 9 7 5 2 3 4 6 6 5 5 6 6 7 8 8 8 8 8 8 8 8 8 8 8 8 7 7 7 6 5 4 4 3 3 3 3 3 3 3 3 3 3 3 5 7 10 14 17 22 27 33 37 39 35 28 18 14
11 10 9 9 9 8 8 8 8 8 9 9 6 3 1 1 3 5 6 5 6 6 7 8 9 9 9 9 8 8 8 8 9 8 8 8 7 7 7 7 6 5 4 3 2 2 2 2 3 4 4 3 3 4 5 7 9 13 17 21 26 31 35 38 34 26 17 10 10
11 9 8 7 7 7 7 8 8 9 8 6 3 1 1 2 4 6 6 6 7 8 8 9 9 9 9 9 9 9 9 8 8 8 8 7 7 6 6 7 6 5 3 2 2 2 2 3 4 4 4 4 4 5 7 9 12 16 20 25 29 33 35 35 26 17 10 8 11
10 8 7 6 6 7 8 9 10 9 7 4 2 1 2 4 6 7 7 8 8 9 9 9 9 9 8 8 8 9 8 8 8 7 7 7 6 5 5 5 6 5 4 2 2 3 4 5 5 5 5 5 6 7 9 12 15 20 24 28 31 34 33 27 17 10 8 9 13
9 7 6 6 7 8 9 10 9 8 5 3 2 3 5 7 8 8 8 9 9 9 9 9 9 8 8 8 8 8 8 8 7 7 6 6 6 5 4 3 4 5 4 3 3 4 5 6 6 6 5 5 7 8 11 14 18 22 26 30 32 32 27 18 11 8 9 12 15
7 6 6 6 8 9 10 10 8 6 5 4 5 6 7 8 9 9 9 10 9 9 8 8 8 8 8 8 8 8 8 7 7 6 6 5 4 4 3 2 4 5 5 4 5 5 6 6 6 6 6 6 8 10 13 17 20 24 28 32 31 27 21 12 9 9 11 14 16
6 6 7 8 9 10 10 9 7 6 6 6 8 8 9 9 10 10 10 9 9 8 8 8 8 8 8 8 8 7 7 7 6 5 5 4 4 3 3 3 4 5 6 6 6 5 5 6 5 5 6 7 9 12 15 18 22 26 29 31 28 22 15 10 9 10 13 15 16
Height
5600 5600 5600 5601 5601 5602 5602 5603 5604 5605 5605 5605 5605 5606 5606 5607 5608 5608 5608 5608 5608 5608 5608 5608 5608 5608 5608 5608 5608 5608 5608 5608 5607 5607 5607 5607 5606 5606 5606 5606 5605 5605 5605 5605 5604 5604 5604 5603 5603 5602 5601 5600 5600 5599 5598 5597 5597 5596 5595 5595 5594 5593 5592 5592 5591 5590 5588 5587 5586
5597 5597 5598 5598 5599 5599 5600 5601 5601 5602 5602 5602 5603 5603 5604 5604 5605 5605 5605 5605 5605 5604 5605 5605 5605 5605 5605 5605 5605 5605 5605 5605 5604 5604 5604 5604 5604 5603 5603 5603 5602 5602 5602 5602 5601 5601 5600 5600 5599 5599 5598 5597 5597 5596 5595 5594 5594 5593 5592 5591 5590 5590 5589 5588 5587 5586 5585 5584 5582
5595 5595 5595 5595 5596 5596 5597 5598 5598 5599 5599 5600 5600 5600 5600 5601 5601 5601 5602 5601 5601 5601 5601 5601 5601 5602 5602 5602 5602 5602 5602 5601 5601 5601 5601 5601 5600 5600 5600 5600 5599 5599 5599 5599 5599 5598 5597 5597 5596 5596 5595 5594 5594 5593 5592 5591 5590 5590 5589 5588 5587 5586 5586 5585 5584 5582 5581 5580 5579
5592 5592 5592 5593 5593 5593 5594 5595 5595 5596 5596 5597 5597 5597 5597 5598 5598 5598 5598 5598 5598 5598 5598 5598 5598 5599 5599 5599 5599 5599 5599 5598 5598 5598 5598 5598 5598 5597 5597 5597 5596 5596 5596 5596 5595 5595 5594 5594 5593 5592 5592 5591 5590 5590 5589 5588 5587 5586 5586 5585 5584 5583 5582 5581 5580 5579 5578 5576 5575
5590 5590 5590 5590 5590 5591 5591 5592 5592 5593 5594 5594 5594 5594 5594 5594 5594 5595 5595 5595 5595 5595 5595 5595 5595 5595 5596 5596 5596 5596 5595 5595 5595 5595 5595 5595 5595 5594 5594 5594 5594 5593 5593 5593 5592 5592 5591 5591 5590 5589 5589 5588 5587 5586 5585 5585 5584 5583 5583 5582 5581 5580 5579 5578 5577 5575 5574 5573 5571
5587 5587 5587 5588 5588 5588 5588 5589 5589 5590 5590 5590 5591 5591 5591 5591 5591 5591 5591 5591 5592 5592 5592 5592 5592 5593 5593 5593 5593 5593 5592 5592 5592 5592 5592 5592 5592 5591 5591 5591 5590 5590 5590 5590 5589 5589 5588 5587 5587 5586 5585 5585 5584 5583 5582 5582 5581 5580 5580 5579 5578 5577 5576 5575 5573 5572 5571 5569 5567
5585 5585 5585 5585 5585 5585 5585 5586 5586 5586 5587 5587 5587 5587 5587 5587 5587 5588 5588 5588 5589 5589 5589 5589 5589 5590 5590 5590 5590 5590 5590 5589 5589 5589 5589 5589 5589 5589 5588 5588 5588 5588 5587 5587 5586 5586 5585 5584 5584 5583 5582 5581 5580 5580 5579 5579 5578 5577 5576 5575 5574 5574 5573 5571 5570 5569 5567 5566 5564
5581 5581 5581 5581 5582 5582 5583 5583 5583 5583 5583 5583 5584 5584 5584 5584 5584 5585 5585 5585 5586 5585 5585 5586 5586 5586 5587 5587 5587 5586 5586 5586 5586 5586 5586 5586 5586 5585 5585 5585 5585 5585 5584 5584 5583 5583 5582 5581 5580 5580 5579 5578 5577 5576 5576 5575 5575 5574 5573 5572 5571 5570 5569 5568 5566 5565 5564 5562 5560
5578 5578 5578 5578 5578 5579 5579 5579 5580 5580 5580 5580 5580 5581 5581 5581 5581 5581 5582 5582 5583 5583 5583 5583 5583 5583 5584 5583 5583 5583 5583 5583 5583 5583 5583 5583 5583 5583 5582 5582 5582 5582 5581 5581 5580 5580 5579 5578 5577 5576 5575 5575 5574 5573 5573 5572 5571 5571 5570 5569 5568 5566 5565 5564 5563 5561 5560 5558 5556
5575 5574 5574 5574 5575 5575 5575 5576 5576 5576 5577 5577 5577 5577 5578 5578 5578 5578 5579 5579 5580 5580 5580 5580 5580 5580 5580 5580 5580 5580 5580 5580 5580 5580 5580 5580 5580 5580 5579 5579 5579 5579 5578 5578 5577 5576 5575 5575 5574 5572 5572 5571 5571 5570 5570 5569 5568 5567 5566 5565 5564 5563 5561 5560 5559 5557 5556 5554 5552
5571 5571 5571 5571 5571 5571 5572 5572 5573 5573 5574 5574 5574 5574 5575 5575 5575 5575 5575 5576 5576 5577 5577 5577 5577 5577 5577 5577 5577 5577 5577 5577 5577 5577 5577 5577 5576 5576 5576 5576 5576 5576 5575 5575 5574 5573 5572 5571 5570 5569 5569 5568 5567 5567 5566 5565 5565 5564 5563 5562 5560 5559 5558 5556 5555 5553 5552 5550 5549
5568 5568 5568 5568 5568 5568 5569 5569 5570 5570 5570 5570 5571 5571 5571 5571 5571 5572 5572 5573 5573 5574 5574 5574 5574 5574 5574 5574 5574 5574 5574 5574 5574 5574 5574 5574 5573 5573 5573 5573 5573 5573 5572 5572 5571 5570 5569 5568 5567 5566 5565 5565 5564 5564 5563 5562 5561 5560 5559 5558 5557 5555 5554 5552 5551 5549 5548 5546 5545
5565 5565 5565 5565 5565 5565 5565 5566 5566 5567 5567 5567 5568 5568 5568 5568 5569 5569 5570 5570 5570 5570 5571 5571 5571 5571 5571 5571 5571 5571 5571 5571 5571 5570 5570 5570 5570 5570 5570 5570 5570 5570 5569 5568 5567 5566 5565 5564 5563 5562 5562 5561 5560 5560 5559 5558 5558 5557 5555 5554 5553 5552 5550 5548 5546 5545 5543 5542 5540
5561 5562 5562 5562 5562 5562 5562 5563 5563 5564 5564 5564 5565 5565 5565 5565 5566 5566 5567 5567 5567 5568 5568 5568 5568 5568 5568 5568 5568 5568 5568 5568 5567 5567 5567 5567 5567 5567 5567 5567 5567 5566 5566 5565 5564 5563 5562 5560 5559 5559 5558 5558 5557 5556 5555 5555 5554 5553 5551 5550 5549 5547 5546 5544 5542 5541 5539 5537 5536
5558 5559 5559 5559 5559 5559 5559 5560 5560 5561 5561 5561 5561 5561 5562 5562 5563 5563 5564 5564 5565 5565 5565 5565 5565 5565 5565 5565 5565 5564 5565 5565 5565 5564 5564 5564 5564 5564 5564 5564 5564 5563 5563 5562 5561 5559 5558 5556 5555 5555 5555 5554 5553 5553 5552 5551 5550 5549 5547 5546 5545 5543 5541 5540 5538 5536 5535 5533 5531
5555 5556 5556 5556 5556 5556 5556 5556 5557 5557 5558 5558 5558 5559 5559 5559 5560 5560 5561 5561 5561 5561 5562 5562 5561 5561 5561 5561 5561 5561 5561 5561 5561 5561 5561 5561 5561 5561 5561 5561 5560 5560 5559 5559 5557 5555 5554 5553 5552 5551 5551 5550 5549 5549 5548 5547 5545 5544 5543 5542 5540 5539 5537 5535 5533 5532 5530 5528 5526
5552 5553 5553 5553 5553 5553 5553 5553 5554 5554 5555 5555 5555 5556 5556 5556 5557 5557 5558 5558 5558 5558 5558 5558 5558 5558 5558 5558 5558 5558 5558 5558 5558 5558 5558 5558 5558 5558 5558 5557 5557 5557 5556 5555 5554 5552 5550 5549 5548 5547 5547 5546 5545 5545 5544 5542 5541 5540 5539 5537 5535 5534 5532 5530 5529 5527 5525 5523 5522
5549 5550 5550 5550 5550 5550 5550 5550 5550 5551 5551 5552 5552 5553 5553 5553 5554 5554 5555 5555 5555 5555 5555 5555 5555 5555 5555 5555 5555 5555 5555 5555 5555 5555 5555 5555 5555 5555 5555 5554 5554 5554 5553 5552 5550 5548 5546 5545 5544 5543 5543 5542 5541 5540 5539 5538 5537 5535 5534 5532 5531 5529 5527 5526 5524 5522 5520 5519 5517
5546 5546 5547 5547 5547 5546 5546 5546 5547 5548 5548 5549 5549 5550 5550 5550 5550 5551 5551 5551 5551 5551 5551 5551 5551 5552 5552 5552 5552 5552 5552 5552 5552 5552 5552 5552 5552 5551 5551 5551 5551 5550 5550 5548 5546 5544 5542 5541 5540 5539 5539 5538 5537 5536 5535 5534 5532 5531 5530 5528 5526 5525 5523 5521 5519 5517 5515 5514 5512
5543 5543 5544 5544 5544 5543 5543 5543 5544 5544 5545 5545 5546 5546 5547 5547 5547 5548 5548 5548 5548 5548 5548 5548 5548 5549 5549 5549 5549 5549 5549 5549 5549 5549 5549 5549 5549 5549 5548 5548 5548 5547 5546 5545 5542 5540 5538 5537 5536 5535 5534 5533 5532 5531 5530 5529 5528 5526 5525 5523 5522 5520 5518 5516 5514 5512 5510 5509 5507
5540 5540 5540 5540 5540 5540 5540 5540 5540 5541 5541 5542 5543 5543 5544 5544 5544 5544 5545 5544 5545 5545 5545 5545 5545 5545 5545 5546 5546 5546 5546 5546 5546 5546 5546 5545 5545 5545 5545 5545 5545 5544 5543 5541 5539 5536 5534 5533 5532 5531 5530 5529 5528 5527 5526 5525 5524 5522 5520 5519 5517 5515 5513 5511 5510 5507 5505 5504 5502
5536 5537 5537 5537 5537 5536 5536 5537 5537 5537 5538 5539 5540 5540 5541 5541 5541 5541 5541 5541 5541 5541 5542 5542 5542 5543 5543 5543 5543 5543 5543 5543 5543 5543 5542 5542 5542 5542 5542 5542 5541 5541 5539 5537 5535 5532 5530 5529 5528 5527 5526 5525 5524 5523 5522 5521 5519 5518 5516 5514 5512 5510 5508 5506 5505 5503 5500 5498 5496
5533 5534 5534 5534 5533 5533 5533 5533 5534 5534 5535 5535 5536 5537 5538 5538 5538 5538 5538 5538 5538 5538 5539 5539 5539 5540 5540 5540 5540 5540 5540 5540 5540 5540 5539 5539 5539 5539 5539 5539 5538 5538 5536 5534 5531 5528 5526 5525 5524 5523 5522 5521 5520 5519 5518 5516 5515 5513 5511 5510 5508 5505 5504 5501 5500 5497 5495 5493 5491
5530 5530 5531 5531 5530 5530 5530 5530 5530 5531 5531 5532 5533 5534 5534 5535 5535 5535 5535 5535 5535 5535 5536 5536 5536 5536 5536 5536 5537 5537 5537 5537 5537 5536 5536 5536 5536 5536 5535 5535 5535 5534 5533 5530 5527 5525 5523 5521 5520 5519 5518 5517 5516 5515 5514 5512 5510 5509 5507 5505 5503 5501 5499 5496 5494 5492 5490 5488 5485
5526 5527 5528 5528 5527 5526 5526 5527 5527 5528 5529 5529 5530 5531 5531 5531 5532 5532 5532 5532 5532 5533 5533 5533 5533 5533 5533 5533 5534 5534 5534 5534 5533 5533 5533 5533 5533 5532 5532 5532 5532 5531 5529 5526 5523 5521 5519 5518 5516 5515 5514 5513 5512 5510 5509 5508 5506 5504 5502 5500 5498 5496 5494 5491 5489 5487 5485 5482 5480
5523 5524 5525 5525 5524 5523 5523 5524 5524 5525 5525 5526 5527 5528 5528 5528 5528 5529 5529 5529 5530 5530 5530 5530 5530 5530 5530 5530 5530 5530 5530 5530 5530 5530 5529 5529 5529 5529 5529 5529 5529 5527 5525 5522 5520 5517 5516 5515 5513 5511 5510 5508 5507 5506 5505 5503 5501 5500 5497 5495 5493 5491 5489 5486 5484 5481 5479 5476 5474
5520 5521 5522 5521 5521 5520 5520 5520 5521 5522 5523 5523 5524 5525 5525 5525 5525 5526 5526 5526 5527 5527 5527 5527 5527 5527 5527 5527 5528 5527 5527 5527 5527 5526 5526 5526 5526 5526 5526 5526 5526 5525 5521 5518 5516 5514 5513 5511 5509 5507 5506 5504 5503 5502 5501 5499 5497 5495 5493 5490 5488 5485 5483 5481 5479 5476 5473 5470 5468
5517 5518 5519 5518 5518 5517 5517 5518 5519 5519 5520 5521 5521 5521 5522 5522 5523 5523 5524 5524 5524 5524 5525 5525 5525 5525 5525 5525 5524 5524 5524 5524 5523 5523 5522 5522 5522 5523 5523 5524 5524 5522 5519 5515 5512 5510 5509 5508 5506 5504 5502 5500 5499 5498 5496 5494 5492 5490 5487 5485 5483 5480 5478 5475 5473 5470 5468 5465 5462
5513 5515 5515 5515 5515 5515 5515 5515 5516 5517 5517 5518 5518 5518 5519 5519 5520 5520 5521 5521 5521 5522 5522 5522 5522 5522 5521 5521 5521 5521 5520 5520 5520 5519 5519 5519 5519 5519 5520 5520 5520 5519 5515 5511 5509 5507 5506 5505 5503 5501 5499 5497 5495 5494 5492 5490 5487 5485 5482 5480 5477 5475 5472 5470 5467 5465 5462 5459 5457
5510 5512 5512 5512 5512 5512 5512 5513 5514 5514 5514 5514 5515 5515 5516 5517 5517 5518 5518 5519 5519 5519 5519 5519 5519 5519 5519 5519 5518 5518 5517 5517 5516 5516 5515 5515 5515 5515 5516 5517 5517 5515 5512 5508 5505 5504 5502 5501 5500 5498 5496 5494 5492 5490 5487 5485 5483 5480 5478 5475 5472 5470 5467 5465 5462 5459 5456 5454 5451
5507 5508 5509 5509 5509 5509 5510 5510 5511 5511 5511 5511 5512 5512 5513 5514 5515 5515 5516 5516 5516 5516 5515 5516 5516 5516 5515 5515 5515 5515 5514 5514 5513 5512 5512 5511 5511 5511 5512 5514 5514 5512 5509 5505 5502 5500 5499 5497 5496 5495 5493 5491 5488 5486 5483 5481 5478 5475 5473 5470 5468 5465 5462 5460 5457 5454 5451 5449 5446
5504 5505 5505 5505 5506 5506 5507 5508 5508 5508 5508 5509 5509 5510 5511 5511 5512 5513 5513 5513 5513 5513 5513 5513 5513 5513 5512 5512 5512 5511 5511 5510 5510 5509 5508 5508 5507 5507 5508 5509 5510 5508 5505 5501 5498 5496 5495 5493 5492 5490 5489 5487 5485 5482 5479 5477 5474 5471 5469 5466 5463 5460 5457 5455 5452 5449 5446 5444 5442
5501 5502 5502 5503 5503 5504 5505 5505 5505 5505 5505 5506 5507 5507 5508 5509 5509 5510 5510 5510 5510 5510 5510 5510 5510 5510 5510 5509 5509 5508 5508 5507 5506 5505 5505 5504 5504 5503 5504 5505 5505 5504 5501 5497 5494 5492 5490 5489 5487 5486 5485 5483 5480 5478 5475 5472 5470 5467 5464 5461 5459 5456 5453 5450 5448 5445 5443 5440 5438
5498 5499 5499 5500 5500 5501 5502 5502 5502 5503 5503 5504 5504 5505 5505 5506 5507 5507 5507 5507 5507 5507 5507 5507 5507 5506 5506 5506 5505 5505 5504 5504 5503 5502 5501 5500 5500 5499 5499 5500 5501 5500 5497 5494 5491 5488 5486 5485 5483 5482 5480 5479 5476 5474 5471 5468 5465 5463 5460 5457 5455 5452 5449 5446 5444 5441 5439 5437 5435
5495 5496 5496 5497 5498 5498 5499 5499 5500 5500 5501 5501 5502 5503 5503 5504 5504 5504 5504 5504 5504 5504 5504 5504 5504 5503 5503 5502 5502 5501 5501 5500 5500 5499 5498 5497 5496 5495 5495 5495 5496 5496 5493 5490 5487 5485 5482 5480 5479 5477 5476 5474 5472 5469 5466 5464 5461 5458 5456 5453 5450 5447 5445 5442 5440 5438 5436 5434 5432
5493 5493 5494 5494 5495 5495 5496 5497 5497 5498 5498 5499 5499 5500 5500 5501 5501 5501 5501 5501 5501 5501 5501 5501 5501 5500 5500 5499 5499 5498 5498 5497 5496 5496 5495 5494 5493 5492 5491 5491 5492 5492 5490 5486 5483 5480 5478 5476 5474 5473 5471 5470 5467 5465 5462 5460 5457 5454 5451 5449 5446 5443 5441 5439 5437 5435 5433 5431 5429
5490 5490 5491 5491 5492 5493 5494 5495 5495 5495 5496 5496 5497 5497 5498 5498 5498 5498 5498 5498 5498 5498 5498 5498 5498 5497 5497 5496 5495 5495 5495 5494 5493 5492 5491 5491 5490 5488 5487 5486 5487 5487 5486 5483 5479 5476 5474 5472 5470 5469 5467 5465 5463 5460 5458 5455 5452 5450 5447 5445 5442 5440 5437 5435 5433 5431 5430 5428 5426
5487 5488 5489 5489 5490 5490 5491 5492 5493 5493 5493 5494 5495 5495 5495 5495 5495 5495 5495 5495 5495 5495 5495 5495 5495 5495 5494 5493 5493 5492 5491 5491 5490 5489 5488 5487 5486 5485 5484 5482 5482 5482 5482 5479 5475 5472 5470 5467 5466 5464 5463 5460 5458 5456 5453 5451 5448 5445 5443 5440 5438 5436 5434 5432 5430 5428 5427 5425 5423
5485 5485 5486 5487 5487 5488 5489 5490 5490 5490 5491 5491 5492 5492 5492 5493 5492 5492 5492 5492 5492 5492 5492 5492 5492 5491 5491 5490 5490 5489 5488 5488 5487 5486 5485 5484 5483 5482 5480 5479 5478 5477 5477 5475 5472 5468 5465 5463 5461 5460 5458 5456 5454 5451 5449 5446 5444 5441 5439 5436 5434 5432 5430 5429 5427 5425 5424 5422 5420
5482 5483 5484 5485 5485 5486 5487 5487 5488 5488 5489 5489 5489 5489 5490 5490 5490 5490 5489 5489 5489 5489 5489 5489 5489 5488 5488 5487 5486 5486 5485 5484 5484 5483 5482 5480 5480 5479 5477 5476 5474 5473 5472 5471 5468 5465 5461 5459 5457 5456 5454 5452 5450 5447 5445 5442 5440 5437 5435 5433 5431 5429 5427 5425 5424 5422 5421 5419 5417
5479 5480 5481 5482 5483 5484 5485 5485 5485 5486 5486 5486 5486 5486 5487 5487 5487 5487 5486 5486 5486 5486 5486 5486 5485 5485 5485 5484 5483 5483 5482 5481 5480 5480 5479 5477 5476 5475 5474 5472 5470 5469 5468 5467 5464 5461 5458 5455 5453 5452 5450 5448 5445 5443 5441 5439 5436 5434 5431 5430 5428 5426 5424 5423 5421 5420 5418 5416 5414